Regional Weather Roundup
Issued by NWS

Home | Current Version | Previous Version | Graphics & Text | Print | Product List | Glossary On
Versions: 1 2 3 4 5 6 7 8 9 10 11 12 13 14 15 16 17 18 19 20 21 22 23 24 25 26 27 28 29 30 31 32 33 34 35 36 37 38 39 40 41 42 43 44 45 46 47 48 49 50
000
ASUS43 KBIS 290731
RWRND
NORTH DAKOTA REGIONAL WEATHER ROUNDUP
NATIONAL WEATHER SERVICE EASTERN NORTH DAKOTA/GRAND FORKS ND
200 AM CDT THU JUN 29 2017

  NOTE: "FAIR" INDICATES FEW OR NO CLOUDS BELOW 12,000 FEET WITH NO
  SIGNIFICANT WEATHER AND/OR OBSTRUCTIONS TO VISIBILITY.

NDZ001>003-009>011-017-290800-
...NORTHWEST NORTH DAKOTA...

CITY           SKY/WX    TMP DP  RH WIND       PRES   REMARKS
WILLISTON      FAIR      56  48  74 NW7       29.79S
MINOT          FAIR      58  50  75 NW3       29.77R
MINOT AFB      FAIR      52  49  88 NW6       29.76S
$$

NDZ018>021-031>035-040>046-290800-
...SOUTHWEST NORTH DAKOTA...

CITY           SKY/WX    TMP DP  RH WIND       PRES   REMARKS
BISMARCK       FAIR      62  54  74 NE6       29.74F
DICKINSON      FAIR      55  43  63 CALM      29.77S
GARRISON         N/A     60  52  74 CALM      29.76F
HETTINGER      FAIR      58  44  60 SE5       29.80R
$$

NDZ004>008-012>016-024-026-027-054-290800-
...NORTHEAST NORTH DAKOTA...

CITY           SKY/WX    TMP DP  RH WIND       PRES   REMARKS
GRAND FORKS    CLOUDY    63  61  93 CALM      29.71S
GRAND FORKS AF CLOUDY    60  60 100 CALM      29.72R
DEVILS LAKE    FAIR      56  55  97 CALM      29.76R
$$

NDZ022-023-025-028>030-036>039-047>053-290800-
...SOUTHEAST NORTH DAKOTA...

CITY           SKY/WX    TMP DP  RH WIND       PRES   REMARKS
JAMESTOWN      FAIR      56  52  86 N3        29.73S
FARGO          CLOUDY    64  61  90 N12       29.70F
WAHPETON       CLOUDY    61  57  88 N6        29.69F
$$



USA.gov is the U.S. government's official web portal to all federal, state and local government web resources and services.